Select Weather Forecast Office:  

NWS Baltimore, MD/Washington, DC/Sterling, VA Weather Forecast Office

NWS Regional Weather Roundup
County Warning Area [CWA]: LWX
Regional NWS Weather Office: Baltimore, MD/Washington, DC/Sterling, VA

000
ASUS41 KLWX 230211
RWRLWX

REGIONAL WEATHER ROUNDUP
NATIONAL WEATHER SERVICE BALTIMORE MD/WASHINGTON DC
1000 PM EDT SAT JUL 22 2017

Note: "FAIR" indicates few or no clouds below 12,000 feet
with no significant weather and/or obstructions to visibility.
 TC=TEMPERATURE CELSIUS

 * =Non NWS site. Station does not report precipitation (e.g. rain,
    snow, etc.), thunder, or fog.

DCZ001-MDZ009-015-VAZ040>042-051-053>054-230300-
WASHINGTON METRO

CITY           SKY/WX    TMP DP  RH WIND       PRES   REMARKS
WASHINGTON NAT TSTM      76  74  93 N12       29.81R
DULLES         CLOUDY    74  71  91 CALM      29.82R THUNDER
QUANTICO       CLOUDY    79  75  87 SE8       29.80R THUNDER
COLLEGE PARK*  MOCLDY    73  72  94 CALM      29.81R
LEESBURG*      CLOUDY    73  73 100 CALM      29.83S
MANASSAS*      MOCLDY    74  72  93 SW7       29.80F
GAITHERSBURG*  CLOUDY    72  71  97 W7        29.84R

$$

MDZ006>007-011-014-230300-
BALTIMORE METRO

CITY           SKY/WX    TMP DP  RH WIND       PRES   REMARKS
BWI AIRPORT    CLOUDY    74  73  97 W6        29.79S
MD SCIENCE CTR   N/A     77  73  87 MISG      29.80R
MARTIN STATE   CLOUDY    77  75  94 SW5       29.82R
ANNAPOLIS      CLOUDY    73  73 100 NW8       29.80R
FORT MEADE*    CLOUDY    72  70  94 CALM      29.83R

$$

MDZ012-015-019>023-230300-
MARYLAND EASTERN SHORE

CITY           SKY/WX    TMP DP  RH WIND       PRES   REMARKS
OCEAN CITY     CLOUDY    75  73  93 SW9G21    29.86S
SALISBURY      PTCLDY    73  73 100 SE8       29.84R
BAY BRIDGE AP* MOCLDY    77  73  88 CALM      29.80R
CAMBRIDGE*     MOCLDY    75  73  94 S6        29.82R
EASTON*        CLEAR     77  73  88 S7        29.85R

$$

MDZ017>025-230300-
SOUTHERN MARYLAND

CITY           SKY/WX    TMP DP  RH WIND       PRES   REMARKS
PATUXENT RIVER CLOUDY    77  74  90 SE13G18   29.81R THUNDER
ST INIGOES     TSTM      76  74  93 E6        29.81R
LEONARDTOWN*   CLOUDY    72  70  94 SE8       29.83R

$$

MDZ003>005-230300-
NORTH CENTRAL MARYLAND

CITY           SKY/WX    TMP DP  RH WIND       PRES   REMARKS
FREDERICK*     LGT RAIN  73  73 100 CALM      29.81F
HAGERSTOWN APT LGT RAIN  74  72  93 S5        29.81F
WESTMINSTER*   LGT RAIN  73  72  94 W6        29.81F

$$

MDZ501>502-230300-
WESTERN MARYLAND

CITY           SKY/WX    TMP DP  RH WIND       PRES   REMARKS
OAKLAND*       CLOUDY    64  64 100 SW7       29.91R
CUMBERLAND*    CLOUDY    72  72 100 S5        29.87S

$$

VAZ025>031-230300-
SHENANDOAH VALLEY

CITY           SKY/WX    TMP DP  RH WIND       PRES   REMARKS
WINCHESTER*    LGT RAIN  70  70 100 CALM      29.83S
FRONT ROYAL*   CLOUDY    72  72 100 CALM      29.83R
LURAY*         RAIN      75  73  94 SW7       29.86R
NEW MARKET*    CLOUDY    72  71  96 CALM      29.84S
STAUNTON*      CLOUDY    76  66  69 NW3       29.88F
WAYNESBORO*    MOCLDY    76  75  96 S8        29.91R

$$

WVZ021-048>050-054>055-230300-
EASTERN WEST VIRGINIA PANHANDLE

CITY           SKY/WX    TMP DP  RH WIND       PRES   REMARKS
MARTINSBURG    LGT RAIN  74  70  87 SW7       29.81S
PETERSBURG*    CLOUDY    73  72  97 CALM      29.86F

$$

VAZ036>039-050-230300-
CENTRAL FOOTHILLS

CITY           SKY/WX    TMP DP  RH WIND       PRES   REMARKS
CHARLOTTESVILL MOCLDY    79  74  84 N9G18     29.86R THUNDER
CULPEPER*      CLOUDY    75  75  99 CALM      29.82S
ORANGE*        LGT RAIN  73  72  94 CALM      29.80F
GORDONSVILLE*  CLOUDY    76  75  99 CALM      29.81F
WARRENTON*     CLOUDY    76  72  88 CALM      29.80S

$$

VAZ055>057-230300-
NORTH AND CENTRAL PIEDMONT

CITY           SKY/WX    TMP DP  RH WIND       PRES   REMARKS
FREDERICKSBRG*   N/A     74  74 100 MISG      29.80S
STAFFORD*      CLOUDY    74  74 100 CALM      29.85R

$$

NCZ024-NYZ072-PAZ021-071-VAZ022-071-230300-
OTHER REGIONAL OBSERVATIONS

CITY           SKY/WX    TMP DP  RH WIND       PRES   REMARKS
NEW YORK CITY  CLOUDY    79  72  79 VRB5      29.80S
PHILADELPHIA   CLOUDY    82  70  66 SW13      29.76F
PITTSBURGH     MOCLDY    73  73 100 S3        29.82S
ROANOKE        PTCLDY    87  72  60 SW6       29.90R HX  93
RICHMOND       MOCLDY    87  76  69 S5        29.81R HX  97
RALEIGH        PTCLDY    87  72  60 SW15      29.89R HX  93

$$

ANZ530>537-230300-
MARINE OBSERVATIONS

STATION/POSITION TIME  TEMP    WIND        PRES
                       AIR SEA DIR/SP/G
                 (UTC) (F)     (DEG/KT/KT) (MB)
THOMAS PT LIGHT  0200   76 84  240/  2/  3   N/A
BALT KEY BRIDGE  0142   75     290/  9/ 11 1008.7R
COVE POINT       0148   78     180/ 20/ 21 1009.6F
LEWISETTA        0142   75 86  160/  6/  8 1009.7R
SOLOMONS ISLAND  0148   77 84  160/ 14/ 17   N/A
PINEY POINT      0142          150/ 15/ 16   N/A

$$

Hourly Weather Roundup from: NOAA-NWS
Script developed by: El Dorado Weather & modified by: SE Lincoln Weather